EW0890 Weather Reports


Display with metric or nautical units.
time (UTC)temp
F
wind
direction
speed
MPH
gust
MPH
rain 1hr
in
rain 24hr
in
rain mn
in
humidity
%
barometer
mb
20260905175012 92 65 3.0 5.0 0.00 0.00 0.00 64 1013.9
20260905174603 92 0 2.0 4.0 0.00 0.00 0.00 66 1014.2
20260905174526 92 326 2.0 4.0 0.00 0.00 0.00 66 1014.0
20260905174012 92 124 1.0 4.0 0.00 0.00 0.00 69 1014.0
20260905173513 92 15 1.0 6.0 0.00 0.00 0.00 68 1013.9
20260905173113 92 274 2.0 6.0 0.00 0.00 0.00 72 1014.2
20260905173027 92 297 1.0 6.0 0.00 0.00 0.00 70 1014.0
20260905172502 92 75 2.0 5.0 0.00 0.00 0.00 66 1014.1
20260905172003 91 100 1.0 5.0 0.00 0.00 0.00 68 1014.0
20260905171621 91 259 2.0 6.0 0.00 0.00 0.00 68 1014.2
20260905171508 91 95 1.0 6.0 0.00 0.00 0.00 67 1013.9
20260905171002 91 303 1.0 6.0 0.00 0.00 0.00 70 1013.9
20260905170505 91 60 1.0 6.0 0.00 0.00 0.00 70 1014.1
20260905170101 91 281 2.0 6.0 0.00 0.00 0.00 70 1014.4
20260905170011 91 84 1.0 6.0 0.00 0.00 0.00 67 1014.1
20260905165507 91 89 2.0 6.0 0.00 0.00 0.00 70 1014.2
20260905165006 91 123 2.0 5.0 0.00 0.00 0.00 68 1014.3
20260905164603 91 104 2.0 5.0 0.00 0.00 0.00 68 1014.7
20260905164520 91 278 2.0 5.0 0.00 0.00 0.00 69 1014.4
20260905164017 91 345 0.0 4.0 0.00 0.00 0.00 67 1014.3
20260905163509 91 307 1.0 4.0 0.00 0.00 0.00 69 1014.2
20260905163115 91 310 0.0 4.0 0.00 0.00 0.00 67 1014.5
20260905163027 91 253 0.0 4.0 0.00 0.00 0.00 69 1014.2
20260905162513 91 64 2.0 4.0 0.00 0.00 0.00 67 1014.2
20260905162014 90 75 2.0 7.0 0.00 0.00 0.00 68 1014.3
20260905161606 90 345 2.0 7.0 0.00 0.00 0.00 70 1014.6
20260905161530 90 290 2.0 7.0 0.00 0.00 0.00 70 1014.3
20260905161003 90 298 2.0 6.0 0.00 0.00 0.00 69 1014.3
20260905160504 90 221 1.0 4.0 0.00 0.00 0.00 69 1014.2
20260905160107 90 335 2.0 4.0 0.00 0.00 0.00 70 1014.5
20260905160017 90 248 2.0 4.0 0.00 0.00 0.00 70 1014.2
20260905155504 90 314 1.0 4.0 0.00 0.00 0.00 69 1014.1
20260905155007 90 256 1.0 4.0 0.00 0.00 0.00 70 1014.0
20260905154617 90 340 2.0 4.0 0.00 0.00 0.00 69 1014.2
20260905154513 90 304 1.0 4.0 0.00 0.00 0.00 71 1014.0
20260905154006 89 261 1.0 4.0 0.00 0.00 0.00 68 1014.0
20260905153510 89 259 2.0 4.0 0.00 0.00 0.00 70 1014.0
20260905153113 89 0 1.0 4.0 0.00 0.00 0.00 72 1014.2
20260905153027 89 290 1.0 4.0 0.00 0.00 0.00 70 1014.0
20260905152512 88 258 1.0 7.0 0.00 0.00 0.00 70 1014.0
20260905152012 88 297 2.0 7.0 0.00 0.00 0.00 69 1014.1
20260905151615 88 283 2.0 6.0 0.00 0.00 0.00 71 1014.3
20260905151528 88 289 1.0 6.0 0.00 0.00 0.00 72 1014.1
20260905151013 88 139 1.0 6.0 0.00 0.00 0.00 73 1014.0
20260905150515 88 237 2.0 6.0 0.00 0.00 0.00 72 1014.0
20260905150107 88 306 1.0 6.0 0.00 0.00 0.00 73 1014.2
20260905150030 88 305 0.0 6.0 0.00 0.00 0.00 75 1014.0
20260905145502 87 285 1.0 7.0 0.00 0.00 0.00 75 1013.9
20260905145004 87 6 1.0 9.0 0.00 0.00 0.00 75 1013.8
20260905144607 87 284 3.0 9.0 0.00 0.00 0.00 73 1014.0
20260905144521 87 294 3.0 9.0 0.00 0.00 0.00 74 1013.8
20260905144006 86 264 4.0 9.0 0.00 0.00 0.00 75 1013.7
20260905143510 86 271 3.0 9.0 0.00 0.00 0.00 75 1013.6
20260905143101 85 281 4.0 7.0 0.00 0.00 0.00 77 1013.7
20260905143022 85 295 4.0 7.0 0.00 0.00 0.00 76 1013.6
20260905142507 85 281 4.0 7.0 0.00 0.00 0.00 77 1013.6
20260905142009 84 285 2.0 5.0 0.00 0.00 0.00 81 1013.6
20260905141601 84 278 3.0 5.0 0.00 0.00 0.00 80 1013.8
20260905141525 84 281 3.0 5.0 0.00 0.00 0.00 81 1013.7
20260905141010 83 273 2.0 4.0 0.00 0.00 0.00 82 1013.7
20260905140513 83 254 1.0 4.0 0.00 0.00 0.00 84 1013.8
20260905140105 82 291 2.0 5.0 0.00 0.00 0.00 83 1014.1
20260905140030 82 288 2.0 5.0 0.00 0.00 0.00 83 1013.8
20260905135513 82 241 3.0 5.0 0.00 0.00 0.00 82 1013.8
20260905135014 83 289 2.0 4.0 0.00 0.00 0.00 82 1013.9
20260905134604 83 262 2.0 6.0 0.00 0.00 0.00 82 1014.2
20260905134530 83 250 2.0 6.0 0.00 0.00 0.00 82 1013.9
20260905134005 83 281 3.0 6.0 0.00 0.00 0.00 81 1013.9
20260905133508 83 269 2.0 4.0 0.00 0.00 0.00 82 1013.9
20260905133104 82 272 1.0 3.0 0.00 0.00 0.00 84 1014.0
20260905133015 82 271 1.0 3.0 0.00 0.00 0.00 84 1013.8
20260905132509 82 282 2.0 3.0 0.00 0.00 0.00 85 1013.7
20260905132010 81 281 1.0 3.0 0.00 0.00 0.00 85 1013.7
20260905131605 81 295 1.0 3.0 0.00 0.00 0.00 86 1013.9
20260905131520 81 281 1.0 3.0 0.00 0.00 0.00 86 1013.7
20260905131010 81 255 1.0 2.0 0.00 0.00 0.00 85 1013.7
20260905130514 81 274 1.0 4.0 0.00 0.00 0.00 86 1013.6
20260905130107 80 284 1.0 4.0 0.00 0.00 0.00 87 1013.8
20260905130028 80 278 1.0 4.0 0.00 0.00 0.00 87 1013.6
20260905125517 80 283 1.0 2.0 0.00 0.00 0.00 88 1013.7
20260905125018 79 263 0.0 2.0 0.00 0.00 0.00 89 1013.7
20260905124600 79 0 0.0 0.0 0.00 0.00 0.00 90 1013.9
20260905124529 79 267 0.0 0.0 0.00 0.00 0.00 90 1013.6
20260905124014 78 275 0.0 0.0 0.00 0.00 0.00 90 1013.6
20260905123516 78 275 0.0 1.0 0.00 0.00 0.00 90 1013.6
20260905123105 77 0 0.0 1.0 0.00 0.00 0.00 91 1013.7
20260905123032 77 274 0.0 1.0 0.00 0.00 0.00 91 1013.5
20260905122503 77 274 0.0 0.0 0.00 0.00 0.00 92 1013.4
20260905122008 76 274 0.0 0.0 0.00 0.00 0.00 92 1013.4
20260905121605 76 0 0.0 0.0 0.00 0.00 0.00 93 1013.6
20260905121516 76 274 0.0 0.0 0.00 0.00 0.00 93 1013.3
20260905121008 75 274 0.0 0.0 0.00 0.00 0.00 94 1013.3
20260905120508 75 274 0.0 0.0 0.00 0.00 0.00 94 1013.2
20260905120105 74 0 0.0 0.0 0.00 0.00 0.00 94 1013.4
20260905120027 74 274 0.0 0.0 0.00 0.00 0.00 94 1013.1
20260905115511 74 274 0.0 0.0 0.00 0.00 0.00 94 1013.1
20260905115011 74 274 0.0 0.0 0.00 0.00 0.00 94 1013.1
20260905114602 74 0 0.0 0.0 0.00 0.00 0.00 94 1013.3
20260905114528 74 274 0.0 0.0 0.00 0.00 0.00 95 1013.0
20260905114012 74 274 0.0 0.0 0.00 0.00 0.00 95 1013.0
20260905113514 74 274 0.0 0.0 0.00 0.00 0.00 95 1013.0
20260905113101 73 0 0.0 0.0 0.00 0.00 0.00 95 1013.3
20260905113031 73 274 0.0 0.0 0.00 0.00 0.00 95 1013.1
20260905112515 73 274 0.0 0.0 0.00 0.00 0.00 95 1013.0
20260905112014 73 274 0.0 0.0 0.00 0.00 0.00 95 1013.0
20260905111645 74 0 0.0 0.0 0.00 0.00 0.00 94 1013.3
20260905111539 74 274 0.0 0.0 0.00 0.00 0.00 94 1012.9
20260905111008 74 274 0.0 0.0 0.00 0.00 0.00 94 1012.9
20260905110507 74 273 0.0 0.0 0.00 0.00 0.00 94 1013.0
20260905110017 74 274 0.0 0.0 0.00 0.00 0.00 94 1013.0
20260905105511 74 273 0.0 1.0 0.00 0.00 0.00 93 1013.0
20260905105010 74 283 0.0 1.0 0.00 0.00 0.00 93 1013.0
20260905104607 74 0 0.0 1.0 0.00 0.00 0.00 93 1013.2
20260905104534 74 283 0.0 1.0 0.00 0.00 0.00 93 1012.9
20260905104010 75 283 0.0 1.0 0.00 0.00 0.00 93 1012.9
20260905103512 75 283 0.0 1.0 0.00 0.00 0.00 93 1013.0
20260905103101 75 0 0.0 1.0 0.00 0.00 0.00 93 1013.2
20260905103037 75 288 0.0 1.0 0.00 0.00 0.00 93 1013.0
20260905102514 75 287 0.0 1.0 0.00 0.00 0.00 93 1012.9
20260905102015 75 288 1.0 1.0 0.00 0.00 0.00 93 1012.9
20260905101607 75 293 1.0 2.0 0.00 0.00 0.00 93 1013.2
20260905101533 75 278 1.0 2.0 0.00 0.00 0.00 93 1013.0
20260905101018 75 285 1.0 2.0 0.00 0.00 0.00 93 1013.0
20260905100515 75 272 1.0 2.0 0.00 0.00 0.00 93 1013.0
20260905100110 75 284 1.0 2.0 0.00 0.00 0.00 93 1013.4
20260905100033 75 278 1.0 2.0 0.00 0.00 0.00 93 1013.1
20260905095507 74 262 1.0 2.0 0.00 0.00 0.00 94 1013.1
20260905095009 74 279 0.0 1.0 0.00 0.00 0.00 94 1013.1
20260905094605 74 0 0.0 0.0 0.00 0.00 0.00 94 1013.4
20260905094523 74 278 0.0 0.0 0.00 0.00 0.00 94 1013.1
20260905094013 74 272 0.0 0.0 0.00 0.00 0.00 94 1013.2
20260905093512 74 273 0.0 0.0 0.00 0.00 0.00 94 1013.1
20260905093106 74 0 0.0 0.0 0.00 0.00 0.00 94 1013.5
20260905093030 74 272 0.0 0.0 0.00 0.00 0.00 94 1013.0
20260905092511 74 273 0.0 0.0 0.00 0.00 0.00 94 1013.1
20260905092015 74 272 0.0 0.0 0.00 0.00 0.00 94 1013.0
20260905091604 74 0 0.0 0.0 0.00 0.00 0.00 94 1013.3
20260905091531 74 272 0.0 0.0 0.00 0.00 0.00 94 1013.0
20260905091013 74 272 0.0 0.0 0.00 0.00 0.00 94 1013.1
20260905090517 75 272 0.0 0.0 0.00 0.00 0.00 94 1013.0
20260905090105 75 0 0.0 0.0 0.00 0.00 0.00 94 1013.4
20260905090039 75 272 0.0 0.0 0.00 0.00 0.00 94 1013.1
20260905085520 75 272 0.0 0.0 0.00 0.00 0.00 93 1013.2
20260905085019 75 272 0.0 0.0 0.00 0.00 0.00 93 1013.2
20260905084603 75 0 0.0 0.0 0.00 0.00 0.00 93 1013.5
20260905084520 75 272 0.0 0.0 0.00 0.00 0.00 93 1013.1
20260905084008 75 272 0.0 0.0 0.00 0.00 0.00 93 1013.1
20260905083512 75 272 0.0 0.0 0.00 0.00 0.00 93 1013.1
20260905083100 75 0 0.0 0.0 0.00 0.00 0.00 93 1013.4
20260905083033 75 271 0.0 0.0 0.00 0.00 0.00 93 1013.1
20260905082512 76 271 0.0 0.0 0.00 0.00 0.00 93 1013.0
20260905082015 75 278 0.0 0.0 0.00 0.00 0.00 93 1013.1
20260905081601 75 0 0.0 0.0 0.00 0.00 0.00 93 1013.3
20260905081528 75 278 0.0 0.0 0.00 0.00 0.00 93 1013.1
20260905081016 75 273 0.0 0.0 0.00 0.00 0.00 94 1013.1
20260905080517 75 286 0.0 0.0 0.00 0.00 0.00 94 1013.1
20260905080124 75 0 0.0 1.0 0.00 0.00 0.00 94 1013.3
20260905080040 75 284 0.0 1.0 0.00 0.00 0.00 94 1013.0
20260905075515 75 276 0.0 1.0 0.00 0.00 0.00 94 1013.0
20260905075020 75 284 0.0 0.0 0.00 0.00 0.00 94 1013.1
20260905074558 74 0 0.0 0.0 0.00 0.00 0.00 94 1013.4
20260905074532 74 284 0.0 0.0 0.00 0.00 0.00 94 1013.2
20260905074019 74 284 0.0 0.0 0.00 0.00 0.00 94 1013.2
20260905073516 75 284 0.0 0.0 0.00 0.00 0.00 94 1013.2
20260905073105 74 0 0.0 1.0 0.00 0.00 0.00 94 1013.4
20260905073025 74 284 0.0 1.0 0.00 0.00 0.00 94 1013.1
20260905072512 75 284 0.0 1.0 0.00 0.00 0.00 94 1013.0
20260905072011 75 284 0.0 0.0 0.00 0.00 0.00 94 1013.2
20260905071559 75 0 0.0 0.0 0.00 0.00 0.00 94 1013.6
20260905071528 75 284 0.0 0.0 0.00 0.00 0.00 94 1013.2
20260905071006 75 284 0.0 0.0 0.00 0.00 0.00 94 1013.3
20260905070503 75 284 0.0 0.0 0.00 0.00 0.00 94 1013.3
20260905070105 75 0 0.0 0.0 0.00 0.00 0.00 93 1013.7
20260905070013 75 284 0.0 0.0 0.00 0.00 0.00 93 1013.4
20260905065503 75 284 0.0 0.0 0.00 0.00 0.00 93 1013.4
20260905065004 75 284 0.0 0.0 0.00 0.00 0.00 93 1013.5
20260905064604 75 0 0.0 0.0 0.00 0.00 0.00 93 1013.8
20260905064508 75 284 0.0 0.0 0.00 0.00 0.00 93 1013.5
20260905064003 75 284 0.0 0.0 0.00 0.00 0.00 93 1013.5
20260905063508 75 284 0.0 0.0 0.00 0.00 0.00 93 1013.5
20260905063103 75 0 0.0 0.0 0.00 0.00 0.00 93 1013.9
20260905063009 75 284 0.0 0.0 0.00 0.00 0.00 93 1013.6
20260905062503 75 284 0.0 0.0 0.00 0.00 0.00 93 1013.7
20260905062003 75 284 0.0 0.0 0.00 0.00 0.00 93 1013.7
20260905061610 75 0 0.0 0.0 0.00 0.00 0.00 93 1014.0
20260905061512 75 284 0.0 0.0 0.00 0.00 0.00 93 1013.7
20260905061003 75 284 0.0 0.0 0.00 0.00 0.00 92 1013.6
20260905060503 75 284 0.0 0.0 0.00 0.00 0.00 92 1013.6
20260905060109 75 0 0.0 0.0 0.00 0.00 0.00 93 1014.0
20260905060005 75 284 0.0 0.0 0.00 0.00 0.00 93 1013.7
20260905055502 75 284 0.0 0.0 0.00 0.00 0.00 92 1013.7
20260905055004 75 284 0.0 0.0 0.00 0.00 0.00 92 1013.7
20260905054601 76 0 0.0 0.0 0.00 0.00 0.00 92 1014.1
20260905054510 76 284 0.0 0.0 0.00 0.00 0.00 92 1013.7
20260905054005 76 284 0.0 0.0 0.00 0.00 0.00 92 1013.8
20260905053504 75 284 0.0 0.0 0.00 0.00 0.00 92 1013.8
20260905053111 76 0 0.0 0.0 0.00 0.00 0.00 92 1014.1
20260905053012 76 284 0.0 0.0 0.00 0.00 0.00 92 1013.8
20260905052505 76 284 0.0 0.0 0.00 0.00 0.00 91 1013.7
20260905052004 76 284 0.0 0.0 0.00 0.00 0.00 92 1013.7
20260905051558 76 0 0.0 0.0 0.00 0.00 0.00 92 1014.1
20260905051523 76 284 0.0 0.0 0.00 0.00 0.00 92 1013.8
20260905051005 76 284 0.0 0.0 0.00 0.00 0.00 92 1013.8
20260905050503 75 284 0.0 0.0 0.00 0.00 0.00 93 1013.8
20260905050110 75 0 0.0 0.0 0.00 0.00 0.00 93 1014.2
20260905050013 75 284 0.0 0.0 0.00 0.00 0.00 93 1013.8
20260905045503 75 284 0.0 0.0 0.00 0.00 0.00 93 1013.7
20260905045003 75 284 0.0 0.0 0.00 0.00 0.00 92 1013.6
20260905044601 76 0 0.0 0.0 0.00 0.00 0.00 92 1013.9
20260905044508 76 284 0.0 0.0 0.00 0.00 0.00 92 1013.7
20260905044004 76 284 0.0 0.0 0.00 0.00 0.00 92 1013.8
20260905043504 76 284 0.0 0.0 0.00 0.00 0.00 92 1013.9
20260905043105 76 0 0.0 0.0 0.00 0.00 0.00 91 1014.0
20260905043011 76 284 0.0 0.0 0.00 0.00 0.00 91 1013.8
20260905042508 76 284 0.0 0.0 0.00 0.00 0.00 91 1013.8
20260905042003 76 284 0.0 0.0 0.00 0.00 0.00 92 1013.9
20260905041600 76 0 0.0 0.0 0.00 0.00 0.00 92 1014.0
20260905041512 76 284 0.0 0.0 0.00 0.00 0.00 92 1013.8
20260905041003 76 284 0.0 0.0 0.00 0.00 0.00 92 1013.8
20260905040505 76 284 0.0 0.0 0.00 0.00 0.00 92 1013.8
20260905040106 76 0 0.0 0.0 0.00 0.00 0.00 92 1013.9
20260905040014 76 284 0.0 0.0 0.00 0.00 0.00 92 1013.9
20260905035504 76 284 0.0 0.0 0.00 0.00 0.00 92 1013.8
20260905035003 76 284 0.0 0.0 0.00 0.00 0.00 92 1013.8
20260905034617 76 0 0.0 0.0 0.00 0.00 0.00 92 1013.9
20260905034516 76 284 0.0 0.0 0.00 0.00 0.00 92 1013.7
20260905034006 76 284 0.0 0.0 0.00 0.00 0.00 92 1013.7
20260905033509 76 284 0.0 0.0 0.00 0.00 0.00 92 1013.6
20260905033118 76 0 0.0 0.0 0.00 0.00 0.00 92 1013.8
20260905033005 76 284 0.0 0.0 0.00 0.00 0.00 92 1013.7
20260905032505 76 284 0.0 0.0 0.00 0.00 0.00 92 1013.8
20260905032005 76 284 0.0 0.0 0.00 0.00 0.00 92 1014.0
20260905031614 76 0 0.0 0.0 0.00 0.00 0.00 93 1014.1
20260905031514 76 284 0.0 0.0 0.00 0.00 0.00 93 1013.9
20260905031006 77 284 0.0 0.0 0.00 0.00 0.00 92 1013.8
20260905030506 77 284 0.0 0.0 0.00 0.00 0.00 92 1013.8
20260905030104 77 0 0.0 0.0 0.00 0.00 0.00 92 1014.0
20260905030015 77 284 0.0 0.0 0.00 0.00 0.00 92 1013.8
20260905025507 77 284 0.0 0.0 0.00 0.00 0.00 92 1013.8
20260905025007 77 284 0.0 0.0 0.00 0.00 0.00 92 1013.8
20260905024558 77 0 0.0 0.0 0.00 0.00 0.00 92 1013.9
20260905024515 77 284 0.0 0.0 0.00 0.00 0.00 92 1013.8
20260905024007 77 284 0.0 0.0 0.00 0.00 0.00 92 1013.9
20260905023507 78 284 0.0 0.0 0.00 0.00 0.00 92 1013.9
20260905023126 78 0 0.0 0.0 0.00 0.00 0.00 92 1014.0
20260905023019 78 284 0.0 0.0 0.00 0.00 0.00 92 1013.9
20260905022511 78 283 0.0 0.0 0.00 0.00 0.00 91 1013.8
20260905022010 78 284 0.0 0.0 0.00 0.00 0.00 92 1013.8
20260905021602 78 0 0.0 0.0 0.00 0.00 0.00 92 1014.0
20260905021508 78 284 0.0 0.0 0.00 0.00 0.00 92 1013.8
20260905021003 78 283 0.0 0.0 0.00 0.00 0.00 91 1013.7
20260905020506 79 284 0.0 0.0 0.00 0.00 0.00 91 1013.6
20260905020100 79 0 0.0 0.0 0.00 0.00 0.00 91 1013.6
20260905020014 79 284 0.0 0.0 0.00 0.00 0.00 91 1013.5
20260905015507 79 283 0.0 0.0 0.00 0.00 0.00 92 1013.6
20260905015008 79 283 0.0 0.0 0.00 0.00 0.00 91 1013.5
20260905014559 79 0 0.0 0.0 0.00 0.00 0.00 90 1013.7
20260905014516 79 284 0.0 0.0 0.00 0.00 0.00 90 1013.5
20260905014011 79 284 0.0 0.0 0.00 0.00 0.00 90 1013.3
20260905013507 79 283 0.0 0.0 0.00 0.00 0.00 90 1013.2
20260905013100 80 0 0.0 0.0 0.00 0.00 0.00 90 1013.3
20260905013017 80 284 0.0 0.0 0.00 0.00 0.00 90 1013.2
20260905012508 80 283 0.0 0.0 0.00 0.00 0.00 89 1013.3
20260905012008 80 284 0.0 0.0 0.00 0.00 0.00 89 1013.2
20260905011604 80 0 0.0 0.0 0.00 0.00 0.00 89 1013.3
20260905011517 80 283 0.0 0.0 0.00 0.00 0.00 89 1013.2
20260905011008 81 283 0.0 0.0 0.00 0.00 0.00 88 1013.1
20260905010507 81 284 0.0 0.0 0.00 0.00 0.00 88 1013.1
20260905010112 81 0 0.0 0.0 0.00 0.00 0.00 87 1013.1
20260905010009 81 284 0.0 0.0 0.00 0.00 0.00 87 1013.1
20260905005505 82 284 0.0 0.0 0.00 0.00 0.00 87 1013.1
20260905005008 82 284 0.0 0.0 0.00 0.00 0.00 86 1012.9
20260905004627 83 0 0.0 0.0 0.00 0.00 0.00 85 1013.0
20260905004516 83 284 0.0 0.0 0.00 0.00 0.00 85 1012.9
20260905004007 84 283 0.0 0.0 0.00 0.00 0.00 84 1012.9
20260905003509 84 284 0.0 1.0 0.00 0.00 0.00 84 1012.9
20260905003122 85 0 0.0 1.0 0.00 0.00 0.00 83 1013.0
20260905003028 85 283 0.0 1.0 0.00 0.00 0.00 83 1012.9
20260905002505 86 283 0.0 0.0 0.00 0.00 0.00 81 1012.9
20260905002008 87 284 0.0 0.0 0.00 0.00 0.00 79 1013.0
20260905001603 88 0 0.0 0.0 0.00 0.00 0.00 78 1013.1
20260905001516 88 284 0.0 0.0 0.00 0.00 0.00 77 1012.9
20260905001007 90 283 0.0 0.0 0.00 0.00 0.00 74 1012.9
20260905000509 91 284 0.0 0.0 0.00 0.00 0.00 71 1012.8
20260905000137 92 0 0.0 0.0 0.00 0.00 0.00 70 1013.0
20260905000031 92 284 0.0 0.0 0.00 0.00 0.00 70 1012.8
20260904235507 92 284 0.0 0.0 0.00 0.00 0.00 70 1012.9
20260904235004 92 284 0.0 0.0 0.00 0.00 0.00 69 1012.9
20260904234602 92 0 0.0 1.0 0.00 0.00 0.00 69 1013.0
20260904234511 92 284 0.0 1.0 0.00 0.00 0.00 69 1012.7
20260904234007 91 284 0.0 2.0 0.00 0.00 0.00 68 1012.9
20260904233507 91 284 1.0 2.0 0.00 0.00 0.00 65 1013.0
20260904233101 91 280 1.0 2.0 0.00 0.00 0.00 65 1013.1
20260904233020 91 280 1.0 2.0 0.00 0.00 0.00 64 1013.0
20260904232510 92 290 1.0 3.0 0.00 0.00 0.00 64 1013.0
20260904232009 92 286 1.0 3.0 0.00 0.00 0.00 64 1013.1
20260904231602 92 284 1.0 4.0 0.00 0.00 0.00 67 1013.3
20260904231525 92 284 0.0 3.0 0.00 0.00 0.00 67 1013.2
20260904231008 92 283 1.0 4.0 0.00 0.00 0.00 67 1013.1
20260904230508 92 283 3.0 4.0 0.00 0.00 0.00 66 1013.1
20260904230117 92 278 2.0 3.0 0.00 0.00 0.00 66 1013.3
20260904230045 92 284 2.0 3.0 0.00 0.00 0.00 66 1013.2
20260904225508 93 284 1.0 2.0 0.00 0.00 0.00 65 1013.1
20260904225010 93 247 0.0 2.0 0.00 0.00 0.00 66 1013.1
20260904224602 93 273 0.0 4.0 0.00 0.00 0.00 66 1013.1
20260904224519 93 267 0.0 4.0 0.00 0.00 0.00 66 1013.0
20260904224010 93 279 1.0 4.0 0.00 0.00 0.00 65 1013.0
20260904223504 93 285 1.0 3.0 0.00 0.00 0.00 64 1013.0
20260904223102 93 276 0.0 4.0 0.00 0.00 0.00 65 1013.0
20260904223014 93 271 1.0 4.0 0.00 0.00 0.00 63 1013.0
20260904222507 94 277 1.0 4.0 0.00 0.00 0.00 62 1012.9
20260904222008 94 278 0.0 4.0 0.00 0.00 0.00 64 1012.8
20260904221608 93 274 1.0 4.0 0.00 0.00 0.00 64 1012.9
20260904221521 93 283 1.0 4.0 0.00 0.00 0.00 65 1012.7
20260904221011 93 273 1.0 4.0 0.00 0.00 0.00 64 1012.8
20260904220508 93 286 2.0 5.0 0.00 0.00 0.00 64 1012.7
20260904220105 93 289 2.0 5.0 0.00 0.00 0.00 63 1012.9
20260904220026 93 273 3.0 5.0 0.00 0.00 0.00 63 1012.7
20260904215510 94 276 2.0 5.0 0.00 0.00 0.00 60 1012.8
20260904215010 94 242 1.0 3.0 0.00 0.00 0.00 63 1012.8
20260904214608 94 299 1.0 3.0 0.00 0.00 0.00 62 1012.9
20260904214523 94 290 1.0 3.0 0.00 0.00 0.00 63 1012.9
20260904214009 94 234 0.0 3.0 0.00 0.00 0.00 63 1012.9
20260904213512 94 280 1.0 3.0 0.00 0.00 0.00 63 1013.0
20260904213103 94 301 1.0 4.0 0.00 0.00 0.00 63 1013.0
20260904213023 94 260 1.0 4.0 0.00 0.00 0.00 64 1012.9
20260904212509 94 269 1.0 4.0 0.00 0.00 0.00 67 1012.9
20260904212008 93 269 1.0 3.0 0.00 0.00 0.00 65 1013.0
20260904211605 93 252 1.0 4.0 0.00 0.00 0.00 66 1013.3
20260904211516 93 260 0.0 3.0 0.00 0.00 0.00 66 1013.2
20260904211009 93 282 1.0 4.0 0.00 0.00 0.00 67 1013.2
20260904210510 93 284 2.0 4.0 0.00 0.00 0.00 64 1013.3
20260904210104 93 278 3.0 5.0 0.00 0.00 0.00 62 1013.5
20260904210026 93 284 3.0 5.0 0.00 0.00 0.00 64 1013.3
20260904205512 94 273 2.0 5.0 0.00 0.00 0.00 64 1013.4
20260904205012 93 259 1.0 5.0 0.00 0.00 0.00 65 1013.4
20260904204603 93 199 3.0 5.0 0.00 0.00 0.00 63 1013.5
20260904204525 93 245 3.0 5.0 0.00 0.00 0.00 63 1013.4
20260904204011 93 288 2.0 4.0 0.00 0.00 0.00 64 1013.5
20260904203503 93 274 2.0 4.0 0.00 0.00 0.00 64 1013.5
20260904203100 93 281 2.0 6.0 0.00 0.00 0.00 62 1013.7
20260904203007 93 288 2.0 6.0 0.00 0.00 0.00 62 1013.6
20260904202502 94 285 3.0 6.0 0.00 0.00 0.00 63 1013.7
20260904202006 94 289 1.0 5.0 0.00 0.00 0.00 65 1013.7
20260904201628 94 245 2.0 6.0 0.00 0.00 0.00 63 1013.8
20260904201511 94 262 3.0 6.0 0.00 0.00 0.00 62 1013.7
20260904201007 94 262 3.0 6.0 0.00 0.00 0.00 63 1013.7
20260904200506 94 272 3.0 6.0 0.00 0.00 0.00 62 1013.8
20260904200104 94 139 1.0 4.0 0.00 0.00 0.00 64 1014.0
20260904200039 94 170 1.0 4.0 0.00 0.00 0.00 64 1013.8
20260904195510 94 211 2.0 5.0 0.00 0.00 0.00 64 1013.9
20260904195013 94 291 2.0 6.0 0.00 0.00 0.00 64 1013.9
20260904194601 94 282 3.0 6.0 0.00 0.00 0.00 63 1014.2
20260904194540 94 276 4.0 6.0 0.00 0.00 0.00 63 1014.1
20260904194015 94 253 2.0 4.0 0.00 0.00 0.00 65 1014.1
20260904193510 94 238 1.0 4.0 0.00 0.00 0.00 64 1014.1
20260904193101 94 281 2.0 5.0 0.00 0.00 0.00 63 1014.4
20260904193027 94 285 2.0 5.0 0.00 0.00 0.00 61 1014.1
20260904192515 94 269 1.0 6.0 0.00 0.00 0.00 64 1014.2
20260904192003 94 265 3.0 6.0 0.00 0.00 0.00 63 1014.3
20260904191602 94 271 2.0 4.0 0.00 0.00 0.00 65 1014.4
20260904191516 94 265 1.0 4.0 0.00 0.00 0.00 64 1014.3
20260904191004 94 265 1.0 5.0 0.00 0.00 0.00 65 1014.3
20260904190504 94 257 1.0 5.0 0.00 0.00 0.00 65 1014.3
20260904190105 94 283 1.0 4.0 0.00 0.00 0.00 62 1014.7
20260904190016 94 254 1.0 4.0 0.00 0.00 0.00 64 1014.5
20260904185507 94 268 1.0 5.0 0.00 0.00 0.00 65 1014.7
20260904185007 94 276 3.0 5.0 0.00 0.00 0.00 63 1014.6
20260904184602 94 278 2.0 5.0 0.00 0.00 0.00 63 1014.8
20260904184528 94 281 3.0 5.0 0.00 0.00 0.00 62 1014.6
20260904184011 94 267 1.0 6.0 0.00 0.00 0.00 62 1014.6
20260904183511 93 259 4.0 6.0 0.00 0.00 0.00 62 1014.6
20260904183116 94 295 3.0 6.0 0.00 0.00 0.00 63 1014.7
20260904183030 94 287 3.0 6.0 0.00 0.00 0.00 63 1014.6
20260904182513 94 271 3.0 6.0 0.00 0.00 0.00 62 1014.7
20260904182013 94 237 2.0 6.0 0.00 0.00 0.00 65 1014.7
20260904181556 94 245 2.0 5.0 0.00 0.00 0.00 64 1015.0
20260904181530 94 277 2.0 5.0 0.00 0.00 0.00 64 1014.7
20260904181017 94 234 3.0 5.0 0.00 0.00 0.00 62 1014.8
20260904180505 94 262 2.0 4.0 0.00 0.00 0.00 64 1014.7
20260904180103 94 267 2.0 6.0 0.00 0.00 0.00 65 1015.1
20260904180013 94 248 2.0 4.0 0.00 0.00 0.00 64 1014.9
20260904175507 93 293 2.0 6.0 0.00 0.00 0.00 66 1014.9